Wind_Speed
94 102 110 115 115 114 108 112 118 123 118 114 110 106 104 107 103 97 95 91 86 88 90 85 83 78 75 80 79 81 77 79 77 79 81 81 72 66 69 72 69 69 78 82
88 92 107 115 115 113 113 107 112 118 126 122 115 109 108 109 105 101 97 96 92 90 89 90 87 85 80 88 86 88 87 83 84 82 80 82 80 78 79 82 82 80 82 86
88 90 97 107 113 114 110 108 104 108 116 124 122 118 110 107 110 108 102 100 99 97 95 92 90 89 89 88 92 92 95 92 89 90 87 84 85 88 88 84 83 87 92 91
70 78 87 97 110 113 111 108 110 108 105 117 125 121 115 113 111 112 110 104 101 102 100 96 93 91 89 90 93 96 97 98 96 94 91 89 87 88 91 92 90 91 93 97
59 67 78 88 101 110 111 112 109 111 111 106 118 129 123 119 113 110 108 107 105 105 102 101 99 96 95 95 98 98 96 96 98 103 103 101 98 94 96 97 97 98 96 94
41 49 62 78 91 101 111 113 113 110 111 117 109 117 125 126 120 116 112 108 105 105 103 104 105 102 103 103 103 102 102 102 101 100 102 104 108 107 107 107 106 107 106 103
44 50 53 62 75 89 101 112 113 114 116 113 110 108 103 122 127 124 119 115 112 106 101 102 104 106 108 109 108 105 106 107 106 106 107 107 108 109 107 109 111 110 110 108
36 44 53 58 64 73 85 100 110 114 116 112 111 109 101 106 112 131 129 125 119 113 111 111 110 107 104 106 110 110 108 108 107 107 108 108 110 114 115 114 114 112 107 104
36 37 47 57 61 68 75 82 97 111 117 116 115 114 106 102 105 103 108 123 128 123 121 120 118 115 114 114 113 113 112 108 106 105 105 105 104 107 108 108 109 111 110 107
23 24 33 40 45 56 68 83 88 95 104 112 115 117 111 108 106 104 101 102 105 114 121 123 122 121 122 122 122 122 121 120 120 120 119 116 115 112 114 114 114 115 117 117
19 22 20 25 33 39 49 62 77 89 96 101 104 106 105 108 106 107 107 105 104 103 103 102 101 101 104 109 115 120 121 121 121 122 124 125 123 120 121 119 121 120 119 117
22 15 17 14 15 18 26 36 52 68 81 88 95 94 95 95 93 103 107 107 108 108 107 102 100 100 99 99 99 99 102 106 108 110 114 118 112 110 111 104 109 112 109 104
21 19 15 16 17 16 13 20 25 32 44 67 74 78 80 90 90 91 96 98 103 107 108 108 108 105 103 101 100 99 98 97 97 99 100 100 102 101 101 99 99 100 100 101
19 19 16 13 15 14 13 9 10 17 21 29 38 50 43 48 66 84 92 92 96 93 96 99 102 102 104 106 106 104 101 100 100 99 100 101 102 102 103 102 102 103 104 105
18 18 17 17 15 15 13 14 12 11 20 29 32 46 56 55 58 60 68 76 89 92 90 84 83 84 86 90 95 99 102 103 103 104 105 104 104 103 103 104 105 106 106 108
16 15 16 13 12 11 11 15 15 14 17 21 26 35 39 51 54 43 44 49 58 70 79 83 85 84 82 81 81 84 90 94 99 101 103 105 106 106 104 104 105 105 107 109
18 15 14 11 11 12 11 9 9 9 10 11 13 16 20 26 33 37 40 46 54 52 51 53 62 72 78 82 85 85 85 87 90 93 96 98 98 99 101 105 107 110 111 113
19 16 13 12 10 8 7 8 7 6 7 8 9 13 18 22 24 30 40 45 47 37 39 36 39 43 48 55 63 69 78 84 89 93 95 98 99 102 104 107 109 110 111 111
26 22 18 13 10 7 6 7 8 7 5 6 7 13 17 21 26 32 44 48 40 34 28 30 34 40 43 45 48 52 57 62 68 73 77 82 87 91 94 97 98 98 98 102
31 26 22 18 14 13 13 13 10 10 9 11 14 15 15 17 19 23 28 30 30 28 31 33 33 34 38 43 47 51 54 59 64 69 72 75 79 82 87 89 90 92 87 78
35 33 28 24 22 22 20 21 21 19 23 21 21 21 20 20 20 22 24 26 30 32 33 37 39 43 47 51 54 57 60 63 67 70 73 77 81 83 82 78 69 64 60 56
34 33 32 27 27 26 24 25 25 28 29 28 26 26 27 26 27 30 33 36 39 41 41 43 46 49 51 52 56 59 62 66 69 73 75 74 70 62 54 49 46 43 41 41
35 32 33 30 28 26 26 27 28 29 30 30 30 29 30 32 33 36 38 40 42 43 43 42 43 46 51 55 60 64 67 71 71 65 59 52 43 38 35 34 31 31 33 37
37 36 30 25 28 29 29 30 30 28 29 30 31 32 35 36 37 38 38 37 37 38 41 45 48 52 57 60 64 67 70 64 52 43 35 31 28 24 22 23 25 28 32 37
44 45 39 35 34 35 36 33 31 32 34 34 36 37 36 37 39 38 39 40 41 42 45 48 52 57 62 66 70 67 54 42 33 27 23 19 16 16 16 19 22 26 31 40
53 54 51 44 42 42 42 42 40 38 37 40 41 42 42 42 43 44 47 47 47 48 49 52 56 62 65 68 61 48 34 27 21 18 13 12 13 14 15 18 20 27 35 42
Wind_Direction
217 215 215 215 217 218 220 218 218 219 222 224 225 228 230 233 235 233 229 225 232 237 235 231 230 232 223 232 232 237 244 249 254 253 259 268 270 262 267 271 272 273 278 285
216 217 216 215 216 220 220 220 220 220 224 222 223 225 227 230 233 235 235 233 231 234 238 238 236 236 234 232 242 244 249 248 254 259 264 268 267 269 269 271 273 274 281 283
217 218 218 216 218 218 220 221 224 224 225 225 222 223 226 229 233 234 236 236 237 239 239 237 238 239 240 239 240 248 250 248 249 256 262 268 273 275 275 273 275 277 280 283
219 220 219 219 218 218 220 221 222 225 227 228 227 223 223 228 231 235 236 238 240 242 244 240 239 241 243 243 245 247 249 252 254 258 263 266 269 271 274 275 276 277 278 280
216 218 220 221 220 219 220 221 223 224 227 228 228 227 224 226 230 233 235 237 240 241 244 247 243 240 244 247 249 248 249 250 253 252 253 258 264 267 268 271 272 276 277 279
215 223 225 224 223 222 223 223 224 226 228 229 229 228 227 229 228 229 232 235 237 241 242 245 248 247 246 250 252 253 254 255 255 255 256 257 258 262 265 267 269 271 273 277
223 227 226 227 228 227 227 226 226 227 230 232 232 232 229 230 230 231 231 233 235 237 239 242 246 248 249 251 253 255 257 258 260 262 263 264 265 266 267 268 269 270 271 274
232 235 236 233 228 229 229 229 230 231 233 235 233 234 230 233 233 233 234 234 238 238 236 238 241 245 247 250 254 256 258 259 261 264 266 267 268 268 270 272 274 274 277 279
237 239 238 234 231 229 227 230 230 231 232 236 235 235 232 234 236 236 236 236 237 240 243 245 246 246 248 250 252 253 254 257 260 262 264 265 266 268 271 273 275 276 279 282
236 230 237 241 237 231 227 227 229 232 235 237 237 238 236 234 235 237 236 236 237 239 242 245 246 248 250 250 251 254 256 258 259 261 262 263 266 267 269 271 272 275 277 278
210 222 232 230 231 231 228 226 227 228 230 233 237 238 239 237 236 239 239 238 238 238 239 242 245 247 249 251 253 255 256 257 259 261 262 264 265 268 269 269 271 272 276 278
209 202 213 222 226 219 220 226 226 226 229 231 234 237 238 238 236 237 239 240 240 240 241 242 243 245 248 251 254 256 257 258 260 262 264 265 268 271 271 273 275 277 277 276
194 183 172 177 187 188 194 199 203 216 227 230 230 232 236 238 239 239 238 239 241 241 242 243 244 245 246 248 250 253 255 257 259 261 263 266 268 270 272 273 275 276 278 278
193 183 188 181 180 172 174 176 181 182 209 218 215 217 204 225 239 238 242 242 243 242 243 244 245 247 248 249 251 253 255 258 259 262 265 265 267 269 271 273 275 276 277 278
203 186 186 179 179 154 156 157 158 174 179 184 204 200 194 200 222 234 239 246 246 244 245 247 248 249 250 252 254 255 257 258 261 263 265 266 267 269 271 273 276 278 278 279
201 210 181 180 162 151 158 159 171 174 177 190 203 205 213 217 226 228 236 239 249 255 251 246 247 250 253 252 254 257 259 260 261 264 266 269 271 273 275 276 276 276 277 278
194 203 178 167 160 166 166 166 183 187 174 182 186 197 216 225 230 231 235 231 251 257 261 260 261 259 259 260 259 259 258 260 262 265 267 269 272 274 276 278 280 282 283 284
200 220 201 177 173 171 156 162 172 178 196 207 181 188 198 205 217 221 210 233 243 257 256 258 260 260 261 261 263 265 265 266 266 267 269 271 273 275 278 279 281 282 284 285
206 217 223 219 218 221 213 195 170 203 169 218 220 201 214 225 219 215 219 234 248 257 269 265 259 256 259 263 265 267 269 271 272 273 274 275 276 277 278 279 282 284 285 285
216 217 229 228 232 245 250 249 240 231 229 230 239 243 234 228 236 245 248 251 257 255 255 258 266 275 279 278 278 279 279 278 278 277 276 277 277 278 279 282 284 285 287 286
217 217 221 228 238 242 247 250 248 248 247 246 248 253 254 248 245 248 256 263 266 268 274 280 283 281 281 281 281 282 281 281 282 283 284 284 283 283 285 286 287 287 288 287
219 227 227 232 245 247 244 244 245 246 252 255 254 253 255 259 260 262 266 268 269 271 275 277 278 280 283 286 287 287 287 287 288 290 289 287 287 288 288 287 287 286 289 292
226 229 234 237 242 247 243 240 239 242 245 252 258 259 260 262 263 263 262 266 271 274 276 279 280 284 286 286 287 290 293 294 294 290 288 288 286 284 284 285 291 296 300 306
226 225 225 242 248 250 251 249 250 254 258 261 262 261 261 262 263 264 266 268 269 273 278 281 283 286 287 290 292 294 296 296 291 288 285 281 280 280 288 297 307 310 311 310
226 225 238 246 249 247 250 254 256 260 261 261 262 263 264 264 265 267 268 270 273 277 281 286 289 291 292 295 297 300 298 290 285 279 275 273 279 288 302 309 310 314 318 320
228 232 237 246 248 250 251 251 249 251 257 263 265 267 268 270 272 275 277 280 281 284 287 290 291 292 296 299 301 297 287 277 270 268 263 271 286 302 296 298 308 323 322 324
Height
10616 10627 10647 10657 10668 10680 10695 10710 10725 10733 10742 10765 10780 10787 10793 10791 10800 10817 10829 10838 10843 10844 10850 10866 10874 10879 10888 10886 10885 10885 10888 10890 10891 10894 10892 10891 10891 10895 10894 10896 10897 10901 10899 10895
10606 10621 10624 10638 10654 10667 10682 10696 10710 10720 10720 10745 10763 10773 10772 10773 10793 10805 10817 10825 10832 10832 10837 10853 10865 10871 10875 10874 10874 10872 10872 10876 10877 10880 10878 10874 10878 10881 10880 10880 10885 10889 10887 10885
10589 10604 10619 10631 10645 10657 10672 10691 10700 10708 10708 10720 10741 10752 10765 10769 10774 10789 10801 10811 10818 10821 10823 10841 10850 10858 10864 10866 10860 10858 10857 10861 10865 10866 10868 10866 10866 10864 10864 10871 10874 10871 10872 10874
10590 10603 10611 10621 10632 10643 10661 10672 10679 10686 10689 10706 10721 10744 10749 10751 10764 10772 10791 10801 10807 10808 10811 10825 10839 10847 10849 10846 10844 10845 10847 10849 10852 10856 10859 10858 10857 10856 10857 10857 10859 10859 10863 10859
10578 10588 10597 10605 10616 10633 10644 10650 10660 10665 10673 10687 10690 10712 10739 10741 10756 10770 10776 10786 10791 10796 10804 10812 10824 10834 10832 10827 10824 10828 10835 10836 10837 10840 10843 10845 10846 10846 10847 10846 10843 10843 10845 10845
10575 10584 10587 10594 10606 10618 10622 10634 10641 10650 10659 10655 10677 10698 10724 10732 10743 10754 10763 10772 10775 10779 10796 10799 10804 10814 10815 10813 10811 10816 10818 10819 10824 10827 10830 10832 10832 10831 10831 10831 10832 10830 10829 10831
10566 10569 10577 10584 10593 10603 10611 10619 10628 10634 10631 10649 10672 10682 10717 10717 10729 10738 10748 10757 10759 10770 10785 10780 10783 10788 10795 10796 10798 10803 10803 10804 10807 10811 10812 10812 10811 10812 10815 10815 10814 10816 10815 10814
10559 10561 10563 10571 10579 10587 10599 10603 10614 10623 10630 10647 10656 10666 10704 10693 10702 10713 10731 10746 10748 10755 10760 10764 10766 10774 10778 10777 10781 10784 10785 10789 10791 10793 10794 10793 10790 10789 10790 10792 10793 10793 10792 10791
10547 10553 10553 10556 10565 10573 10581 10591 10589 10594 10605 10616 10634 10645 10675 10688 10690 10703 10720 10728 10728 10736 10741 10748 10753 10760 10762 10764 10766 10764 10765 10772 10779 10779 10777 10774 10772 10773 10772 10773 10773 10773 10771 10769
10542 10541 10540 10543 10549 10555 10561 10566 10578 10588 10595 10604 10615 10626 10654 10668 10675 10681 10699 10706 10709 10716 10724 10731 10735 10739 10746 10746 10744 10741 10750 10760 10758 10753 10752 10753 10752 10756 10754 10753 10750 10751 10749 10746
10534 10534 10536 10535 10535 10540 10544 10551 10560 10568 10575 10585 10598 10610 10628 10646 10661 10662 10670 10680 10690 10699 10706 10712 10720 10725 10724 10722 10725 10729 10733 10735 10735 10732 10729 10731 10735 10737 10733 10733 10730 10729 10726 10721
10529 10531 10531 10531 10531 10531 10534 10540 10545 10551 10564 10575 10585 10598 10608 10623 10638 10642 10649 10657 10667 10677 10683 10695 10705 10706 10709 10710 10710 10711 10710 10714 10716 10711 10708 10710 10716 10712 10709 10707 10708 10707 10704 10699
10525 10528 10529 10528 10528 10527 10528 10531 10535 10544 10551 10560 10573 10587 10595 10604 10614 10624 10628 10637 10647 10656 10667 10675 10680 10689 10694 10692 10691 10693 10694 10694 10695 10695 10694 10692 10691 10690 10688 10689 10687 10685 10684 10677
10521 10523 10525 10527 10526 10527 10529 10533 10535 10542 10545 10552 10562 10570 10580 10590 10595 10606 10610 10620 10626 10638 10649 10656 10663 10668 10671 10671 10673 10678 10679 10679 10678 10676 10674 10672 10672 10672 10670 10669 10667 10662 10658 10656
10518 10520 10522 10524 10525 10524 10531 10533 10535 10540 10546 10551 10556 10561 10570 10578 10581 10592 10597 10604 10608 10622 10633 10641 10640 10646 10652 10657 10661 10664 10664 10661 10658 10655 10650 10649 10652 10653 10652 10649 10646 10640 10634 10628
10514 10517 10519 10522 10523 10524 10528 10532 10536 10540 10545 10551 10556 10564 10569 10575 10581 10588 10592 10598 10599 10603 10612 10622 10628 10630 10636 10642 10646 10646 10644 10642 10639 10635 10632 10631 10632 10632 10629 10626 10622 10617 10610 10603
10511 10515 10519 10519 10521 10523 10527 10531 10536 10540 10545 10551 10556 10563 10567 10572 10577 10582 10584 10585 10588 10597 10602 10605 10608 10614 10620 10623 10624 10624 10622 10621 10620 10620 10619 10617 10614 10611 10605 10599 10593 10586 10581 10575
10510 10513 10518 10520 10521 10525 10528 10533 10537 10539 10545 10548 10554 10559 10564 10568 10572 10575 10578 10579 10581 10588 10592 10599 10602 10602 10601 10598 10599 10601 10602 10603 10602 10601 10599 10596 10593 10588 10582 10576 10569 10564 10559 10550
10504 10510 10515 10518 10520 10523 10528 10532 10536 10540 10542 10546 10550 10554 10557 10560 10564 10567 10569 10571 10576 10580 10584 10585 10586 10585 10587 10588 10588 10587 10585 10584 10582 10581 10578 10575 10570 10566 10560 10553 10548 10541 10533 10522
10502 10507 10513 10516 10519 10522 10526 10529 10535 10538 10542 10545 10546 10549 10552 10555 10559 10562 10565 10568 10570 10571 10571 10572 10574 10575 10575 10574 10572 10572 10571 10567 10563 10559 10558 10555 10549 10543 10537 10532 10527 10516 10508 10496
10497 10504 10508 10513 10517 10520 10524 10527 10531 10536 10537 10539 10542 10545 10548 10552 10555 10555 10556 10557 10557 10558 10560 10561 10564 10564 10563 10562 10560 10558 10555 10550 10545 10541 10537 10531 10524 10520 10515 10508 10502 10493 10487 10480
10490 10497 10504 10509 10511 10514 10519 10522 10525 10527 10530 10533 10537 10540 10542 10544 10546 10546 10547 10548 10549 10551 10553 10555 10554 10552 10550 10546 10543 10541 10537 10532 10527 10522 10515 10508 10504 10499 10493 10489 10485 10480 10474 10467
10488 10495 10499 10502 10505 10510 10514 10517 10518 10520 10523 10527 10530 10533 10534 10535 10537 10538 10538 10540 10541 10542 10542 10543 10542 10541 10538 10534 10530 10526 10521 10514 10509 10502 10495 10491 10488 10484 10481 10477 10474 10471 10465 10458
10481 10486 10490 10496 10497 10498 10502 10506 10509 10513 10517 10519 10522 10523 10524 10526 10527 10527 10529 10531 10532 10532 10532 10532 10531 10527 10524 10521 10517 10513 10505 10496 10489 10485 10482 10480 10477 10475 10473 10471 10468 10464 10458 10451
10475 10480 10485 10486 10488 10492 10495 10499 10504 10509 10511 10511 10510 10511 10513 10515 10516 10518 10519 10520 10522 10522 10521 10519 10516 10510 10507 10504 10498 10492 10486 10479 10477 10475 10473 10471 10470 10469 10469 10467 10463 10458 10453 10444
10464 10469 10476 10478 10482 10485 10487 10490 10497 10501 10502 10501 10501 10502 10502 10503 10505 10504 10505 10506 10507 10507 10507 10505 10501 10495 10492 10486 10481 10475 10472 10469 10469 10467 10467 10466 10466 10465 10463 10461 10458 10453 10445 10437